Location: Oak Glen
(34.0495°N, 116.9470°E)
Time: 23:39:57
(UTC-08:00)

Vanguard 1 - Pass Details

Date: 18 June 2018
Orbit: 650 x 3833 km, 34.2° (Epoch: 09 December)

Event Time Altitude Azimuth Distance (km) Brightness Sun altitude
Rises 17:16:44 0° 260° (W) 5,224 13.3 37.7°
Reaches altitude 10° 17:19:31 10° 260° (W) 4,551 13.1 38.3°
Maximum altitude 17:33:39 89° 173° (S) 3,063 13.3 41.2°
Drops below altitude 10° 17:56:53 10° 86° (E) 6,934 15.4 46.0°
Sets 18:02:22 0° 87° (E) 7,953 15.4 47.2°
